Flughafen Wetterinformationen

LTBA 241650Z 03004KT 340V070 CAVOK 18/13 Q1009 NOSIG

VATSIM Feed

Card image cap

ATC Buchungen

Es wurde keine Position gebucht

Card image cap

Aktive Flugsicherung

Derzeit sind keine Fluglotsen Online

Blog

Read our latest news and get to know us better.